Regional Weather Roundup
Issued by NWS Wakefield, VA

Home | Current Version | Previous Version | Graphics & Text | Print | Product List | Glossary On
Versions: 1 2 3 4 5 6 7 8 9 10 11 12 13 14 15 16 17 18 19 20 21 22 23 24 25 26 27 28 29 30 31 32 33 34 35 36 37 38 39 40 41 42 43 44 45 46 47 48 49 50
000
ASUS41 KAKQ 021710
RWRAKQ

REGIONAL WEATHER ROUNDUP
NATIONAL WEATHER SERVICE WAKEFIELD VA
1200 PM EST MON MAR 02 2015

Note: "fair" indicates few or no clouds below 12,000 feet with no
significant weather and/or obstructions to visibility. * = Denotes
station may not report precipitation (e.g., rain,snow,etc.),
thunder or fog.

VAZ042-051-052>054-056-021800-
NORTHERN VIRGINIA

CITY           SKY/WX    TMP DP  RH WIND       PRES   REMARKS
WASH NATIONAL  MOSUNNY   45  24  43 NW18G26   30.29R
DULLES         MOSUNNY   40  19  43 NW23G30   30.28R
FORT BELVOIR   SUNNY     44  22  40 NW18G28   30.28R
QUANTICO       PTSUNNY   45  22  40 N24G30    30.30R
FREDERICKSBRG* SUNNY     49  30  47 NW13G20   30.26S
STAFFORD*      SUNNY     46  26  44 NW13G24   30.31S
WARRENTON      SUNNY     47  31  53 N10G16    30.28R
CULPEPER*      SUNNY     48  19  32 NW6       30.27R
MANASSAS*      SUNNY     43  23  45 NW26G35   30.28S
LEESBURG*      SUNNY     41  23  48 NW18G29   30.29R
WINCHESTER     SUNNY     41  14  33 NW28G38   30.27S
FRONT ROYAL*   FAIR      41  18  38 NW16G23   30.27R
LURAY*         FAIR      45  21  39 W13G21    30.26S
$$

VAZ048-049-060>072-079>083-021800-
CENTRAL AND SOUTH CENTRAL VIRGINIA

CITY           SKY/WX    TMP DP  RH WIND       PRES   REMARKS
RICHMOND       PTSUNNY   48  37  65 NE10      30.26R
CHESTERFIELD*  FAIR      46  28  49 N6        30.28R
PETERSBURG*    SUNNY     47  39  72 NE9       30.26S
HANOVER        MOSUNNY   48  36  63 VRB5      30.28R
TAPPAHANNOCK*  MOSUNNY   44  29  56 NW6       30.27S
QUINTON*       FAIR      44  35  69 N9        30.26S
CHARLOTTSVILLE SUNNY     49  20  31 N7        30.24R
GORDONSVILLE*  FAIR      48  21  34 NW12G20   30.24S
ORANGE*        SUNNY     50  32  50 CALM      30.26S
LOUISA*        SUNNY     52  28  40 NW6       30.24S
BUMPASS*       FAIR      47  34  60 N9        30.26R
FARMVILLE*     MOSUNNY   60  38  45 NE10      30.22R
CREWE*         FAIR      55  36  48 N10G17    30.22S
FORT PICKETT*  PTSUNNY   54  40  58 N10       30.23R
CHASE CITY*    FAIR      53  44  72 NW6       30.24S
CLARKSVILLE*   FAIR      52  41  66 NW7       30.24S
SOUTH HILL*    SUNNY     51  41  68 W7        30.29F
LAWRENCEVILLE* FAIR      52  41  66 NW7       30.23S
EMPORIA*       MOSUNNY   50  43  76 W5        30.25S
$$

VAZ088>098-021800-
SOUTHEAST VIRGINIA

CITY           SKY/WX    TMP DP  RH WIND       PRES   REMARKS
NORFOLK        PTSUNNY   42  34  73 N9        30.26S
VIRGINIA BEACH PTSUNNY   44  40  85 N13       30.26S
NORFOLK NAVAL  PTSUNNY   46  36  68 N7        30.27F
WEST POINT*    MOSUNNY   48  31  52 N9G16     30.29R
SALUDA*        FAIR      41  32  69 N10G16    30.26S
NEWPORT NEWS   SUNNY     48  33  56 N15       30.26S
LANGLEY AFB    MOSUNNY   43  34  70 N10       30.26S
FORT EUSTIS    SUNNY     46  44  95 N8G17     30.24F
WILLIAMSBURG*  MOSUNNY   50  43  76 N3        30.27R
HR EXEC AP*    CLOUDY    45  36  70 N7G17     30.29F
FRANKLIN*      PTSUNNY   42  39  87 N6        30.28R
WAKEFIELD      MOSUNNY   44  36  73 NE5       30.27S
$$

VAZ020-022-025-037-045-021800-
WEST CENTRAL AND SOUTHWEST VIRGINIA

CITY           SKY/WX    TMP DP  RH WIND       PRES   REMARKS
STAUNTON*      SUNNY     44  18  34 NW12G23   30.26S
WAYNESBORO*    FAIR      45  19  35 NW15G23   30.23S
HOT SPRINGS VA SUNNY     32  18  55 W22G31    30.16S WCI  19
LYNCHBURG      SUNNY     48  27  44 W10       30.26R
DANVILLE       SUNNY     56  38  50 N10       30.26R
SOUTH BOSTON*  FAIR      54  33  46 NW20G25   30.25S
MARTINSVILLE   SUNNY     52  33  49 N17G28    30.30R
ROANOKE        MOSUNNY   45  21  38 W8G18     30.29S
BLACKSBURG     SUNNY     38  21  51 W12G21    30.29F
DUBLIN*        SUNNY     41  27  58 NW9       30.30F
MARION*        PTSUNNY   37  29  72 W14G23    30.34F
HILLSVILLE*    SUNNY     39  30  70 NW21G32   30.26S
RICHLANDS*     PTSUNNY   33  27  79 W6        30.35F
WISE*          MOSUNNY   34  27  75 NE8       30.37F
ABINGDON*      MOSUNNY   39  31  72 N9        30.37S
$$

MDZ021>025-VAZ099-100-021800-
SOUTHERN MARYLAND AND THE DELMARVA PENINSULA

CITY           SKY/WX    TMP DP  RH WIND       PRES   REMARKS
PATUXENT RIVER PTSUNNY   42  30  62 NW16      30.27R
BAY BRIDGE APT   N/A     41  21  45 NW20G25   30.28R
LEONARDTOWN    MOSUNNY   43  32  65 NW8       30.28S
DOVER          MOSUNNY   41  30  64 NW17G29   30.23R
GEORGETOWN     PTSUNNY   40  32  73 VRB5      30.24R
EASTON         MOSUNNY   45  30  57 NW17G35   30.29S
CAMBRIDGE      MOSUNNY   43  32  65 NW10G17   30.26R
SALISBURY      PTSUNNY   44  28  53 W15G23    30.25R
OCEAN CITY     PTSUNNY   41  30  65 NW10G22   30.24R
WALLOPS ISLAND PTSUNNY   42  32  67 N15G26    30.24S
ACCOMACK*      CLOUDY    39  32  75 N7G21     30.25S
$$

NCZ012>017-030>032-021800-
NORTH CENTRAL AND EASTERN NORTH CAROLINA

CITY           SKY/WX    TMP DP  RH WIND       PRES   REMARKS
ROANOKE RAPIDS FAIR      54  43  66 W10       30.24S
RALEIGH        MOSUNNY   57  42  57 N7        30.25S
ELIZABETH CITY CLOUDY    47  41  80 N20       30.27R
AHOSKIE*       MOSUNNY   48  43  82 NW5       30.25S
EDENTON*       MOSUNNY   50  46  86 NW8       30.24S
CURRITUCK*     CLOUDY    43  39  87 N7        30.28R
KILL DEVIL HLS CLOUDY    41  41 100 N8        30.25R FOG
MANTEO         CLOUDY    45  41  87 NW10      30.26R
CAPE HATTERAS  CLOUDY    45  45 100 W7        30.23F FOG
TARBORO*       FAIR      54  44  68 W9        30.26S
GOLDSBORO      MOSUNNY   53  53  99 NW2       30.23F
WASHINGTON     SUNNY     52  46  80 NW7       30.25S
GREENVILLE     MOSUNNY   54  45  71 NW7       30.26S
NEW BERN       MOSUNNY   56  48  74 VRB6      30.25F
WILMINGTON     CLOUDY    52  49  89 W10       30.27R
$$

VAZ048-021800-
ELSEWHERE

CITY           SKY/WX    TMP DP  RH WIND       PRES   REMARKS
HARRISBURG PA  SUNNY     33  15  47 NW25G31   30.28  WCI  20
BALTIMORE      MOSUNNY   39  15  37 W17G32    30.27R
ANNAPOLIS      SUNNY     41  18  39 NW13G28   30.26S
ANDREWS AFB    SUNNY     41  23  48 NW16G29   30.27R
PHILADELPHIA   MOSUNNY   38  20  48 NW17G29   30.23R
HENDERSON NC   PTSUNNY   53  38  57 NW3       30.25S
GREENSBORO     PTSUNNY   57  39  51 NW22G28   30.23S
ROCKY MOUNT    SUNNY     56  44  64 NW12      30.25S
$$

VAZ100-021800-
MARINE

STATION/POSITION TIME  TEMP    WIND        PRES    WAVE   SWELL
                       AIR SEA DIR/SP/G            HT/PER HT/PER
                 (UTC) (F)     (DEG/KT/KT) (MB)    (FT/S) (FT/S)
BRANDYWINE LGT   1700   36 31  340/ 15/ 16 1023.9R
CAPE MAY NJ      1700   35 33  320/ 13/ 17 1023.3R
LEWES DE         1700   35 30  330/ 16/ 20 1023.4S
15NM E FENWICK I 1700   35 34              1023.4R   3/ 7
OCEAN-CITY-INLET 1700   40 32  340/ 11/ 15 1023.6R
WACHAPREAGUE VA  1700   40 33  340/  9/ 18 1024.2R
THOMAS POINT MD  1700   40 32  320/ 20/ 22 1025.7R
COVE POINT MD    1700   38     350/ 18/ 19 1024.6F
SOLOMONS ISLAND  1700      33                N/A
BISHOPS HEAD MD  1700   42 32  330/ 13/ 19 1024.8R
CAMBRIDGE MD     1700   40 32  300/  9/ 12 1024.6S
LEWISETTA VA     1700          360/  6/ 13 1024.6R
RAPPAHANNOCK LGT 1700          330/ 10/ 12 1025.2R
STINGRAY PT      1700   37      20/  8/  8   N/A
YORK RVR RNG VA  1700   39      10/ 10/ 11 1024.0R
YORKTOWN VA      1700          360/ 11/ 21 1024.4S
DOMINION TERM VA 1700   37     260/  3/  4 1024.7F
KIPTOPEKE VA     1700          360/ 14/ 18   N/A
CHES BAY BRIDGE  1700   35 33  320/  3/  4 1024.7R
CAPE HENRY VA    1700   35     310/  5/  6 1023.6F
CHESAPEAKE LGHT  1600   35     340/ 13/ 14 1025.0R
WILLOUBY STN VA  1700          360/  8/  9 1025.2F
S CRANEY ISL VA  1700          110/  2/  3 1024.8F
CAPE HENRY BUOY  1600      35                N/A     3/ 7
1ST LANDING BUOY 1700   34     350/  4/  6 1024.7S
OFFSHORE WE BUOY 1700      36                N/A     3/ 7   3/ 7
64NM E OF VA BCH 1700   40 47  330/ 17/ 21 1023.6R   4/ 7   2/ 7
DUCK PIER NC     1700   35 34   10/ 14/ 19 1024.2R
44100 DUCK FRF   1700      36                N/A     3/ 7
44056 DUCK FRF   1700      34                N/A     3/ 6
OREGON INLET NC  1700   46 41  330/  8/ 11 1023.9R
HATTERAS NC      1700          290/ 10/ 11 1023.9F
CAPE LOOKOUT NC  1700   47     280/ 10/ 12 1024.1R
$$



USA.gov is the U.S. government's official web portal to all federal, state and local government web resources and services.